EW7356 Weather Reports


Display with metric or nautical units.
time (UTC)temp
F
wind
direction
speed
MPH
gust
MPH
rain 1hr
in
rain 24hr
in
rain mn
in
humidity
%
barometer
mb
20240223061028 30 0 0.0 0.0 0.00 0.00 0.00 91 1002.9
20240223060531 30 0 0.0 0.0 0.00 0.00 0.00 91 1002.9
20240223060035 30 0 0.0 0.0 0.00 0.00 0.00 90 1003.1
20240223055531 30 0 0.0 0.0 0.00 0.00 0.00 90 1003.1
20240223055026 30 0 0.0 1.0 0.00 0.00 0.00 90 1003.2
20240223054536 30 0 0.0 1.0 0.00 0.00 0.00 90 1003.3
20240223054028 30 0 0.0 1.0 0.00 0.00 0.00 90 1003.3
20240223053528 30 0 0.0 1.0 0.00 0.00 0.00 89 1003.4
20240223053051 30 0 0.0 0.0 0.00 0.00 0.00 89 1003.7
20240223052527 30 0 0.0 1.0 0.00 0.00 0.00 89 1003.7
20240223052031 30 0 0.0 1.0 0.00 0.00 0.00 89 1003.8
20240223051537 30 0 0.0 1.0 0.00 0.00 0.00 88 1003.9
20240223051030 30 0 0.0 0.0 0.00 0.00 0.00 88 1004.0
20240223050531 30 0 0.0 0.0 0.00 0.00 0.00 88 1003.9
20240223050045 30 0 0.0 1.0 0.00 0.00 0.00 87 1004.1
20240223045531 30 0 0.0 1.0 0.00 0.00 0.00 87 1004.0
20240223045034 30 0 0.0 1.0 0.00 0.00 0.00 87 1004.0
20240223044532 30 0 0.0 0.0 0.00 0.00 0.00 86 1004.1
20240223044031 30 0 0.0 0.0 0.00 0.00 0.00 86 1004.1
20240223043530 30 0 0.0 1.0 0.00 0.00 0.00 86 1004.2
20240223043034 30 0 0.0 2.0 0.00 0.00 0.00 85 1004.3
20240223042532 30 0 0.0 3.0 0.00 0.00 0.00 85 1004.4
20240223042030 30 75 1.0 3.0 0.00 0.00 0.00 84 1004.4
20240223041534 30 90 1.0 3.0 0.00 0.00 0.00 84 1004.5
20240223041031 30 0 0.0 2.0 0.00 0.00 0.00 83 1004.7
20240223040529 30 0 0.0 4.0 0.00 0.00 0.00 83 1004.7
20240223040034 30 0 0.0 4.0 0.00 0.00 0.00 83 1004.9
20240223035530 30 157 1.0 3.0 0.00 0.00 0.00 83 1004.8
20240223035032 30 77 0.0 2.0 0.00 0.00 0.00 83 1004.8
20240223034531 30 75 0.0 2.0 0.00 0.00 0.00 84 1005.0
20240223034030 30 0 0.0 1.0 0.00 0.00 0.00 83 1005.0
20240223033531 30 0 0.0 1.0 0.00 0.00 0.00 83 1005.1
20240223033045 30 0 0.0 1.0 0.00 0.00 0.00 82 1005.1
20240223032530 30 0 0.0 1.0 0.00 0.00 0.00 83 1005.2
20240223032031 30 0 0.0 1.0 0.00 0.00 0.00 82 1005.2
20240223031539 30 0 0.0 2.0 0.00 0.00 0.00 82 1005.2
20240223031031 30 0 0.0 2.0 0.00 0.00 0.00 82 1005.3
20240223030531 30 44 0.0 2.0 0.00 0.00 0.00 82 1005.1
20240223030039 30 0 0.0 2.0 0.00 0.00 0.00 82 1005.2
20240223025530 30 0 0.0 2.0 0.00 0.00 0.00 81 1005.2
20240223025030 31 70 1.0 2.0 0.00 0.00 0.00 81 1005.3
20240223024534 31 154 0.0 2.0 0.00 0.00 0.00 81 1005.3
20240223024034 31 0 0.0 1.0 0.00 0.00 0.00 81 1005.3
20240223023530 31 0 0.0 2.0 0.00 0.00 0.00 81 1005.4
20240223023032 31 0 0.0 2.0 0.00 0.00 0.00 81 1005.5
20240223022529 31 173 0.0 4.0 0.00 0.00 0.00 81 1005.6
20240223022028 31 0 0.0 4.0 0.00 0.00 0.00 81 1005.6
20240223021538 30 0 0.0 2.0 0.00 0.00 0.00 81 1005.7
20240223021028 30 0 0.0 1.0 0.00 0.00 0.00 81 1006.0
20240223020530 30 0 0.0 1.0 0.00 0.00 0.00 81 1005.9
20240223020036 30 0 0.0 1.0 0.00 0.00 0.00 81 1005.8
20240223015528 30 0 0.0 1.0 0.00 0.00 0.00 81 1005.8
20240223015027 30 0 0.0 1.0 0.00 0.00 0.00 81 1005.8
20240223014534 30 171 0.0 1.0 0.00 0.00 0.00 81 1005.8
20240223014031 31 0 0.0 1.0 0.00 0.00 0.00 80 1006.0
20240223013531 31 0 0.0 1.0 0.00 0.00 0.00 80 1006.1
20240223013051 31 0 0.0 1.0 0.00 0.00 0.00 79 1006.3
20240223012531 31 0 0.0 1.0 0.00 0.00 0.00 79 1006.4
20240223012035 31 0 0.0 2.0 0.00 0.00 0.00 79 1006.4
20240223011534 31 0 0.0 2.0 0.00 0.00 0.00 78 1006.5
20240223011030 31 0 0.0 1.0 0.00 0.00 0.00 78 1006.6
20240223010528 32 0 0.0 2.0 0.00 0.00 0.00 78 1006.5
20240223010031 32 171 0.0 2.0 0.00 0.00 0.00 78 1006.5
20240223005528 32 171 0.0 2.0 0.00 0.00 0.00 78 1006.6
20240223005031 32 0 0.0 4.0 0.00 0.00 0.00 78 1006.7
20240223004532 32 161 1.0 4.0 0.00 0.00 0.00 78 1006.7
20240223004027 32 0 0.0 3.0 0.00 0.00 0.00 78 1006.8
20240223003531 32 152 1.0 3.0 0.00 0.00 0.00 78 1006.9
20240223003037 32 183 1.0 4.0 0.00 0.00 0.00 78 1006.9
20240223002528 32 180 1.0 4.0 0.00 0.00 0.00 78 1007.0
20240223002032 32 196 1.0 3.0 0.00 0.00 0.00 78 1006.9
20240223001535 32 0 1.0 3.0 0.00 0.00 0.00 78 1006.9
20240223001028 32 166 1.0 5.0 0.00 0.00 0.00 78 1007.0
20240223000531 32 172 0.0 5.0 0.00 0.00 0.00 78 1007.0
20240223000030 32 162 2.0 4.0 0.00 0.00 0.00 78 1007.1
20240222235529 32 202 1.0 4.0 0.00 0.00 0.00 78 1007.1
20240222235031 32 188 0.0 4.0 0.00 0.00 0.00 77 1007.2
20240222234533 32 213 1.0 6.0 0.00 0.00 0.00 77 1007.2
20240222234032 32 189 2.0 8.0 0.00 0.00 0.00 77 1007.2
20240222233529 32 171 2.0 9.0 0.00 0.00 0.00 77 1007.3
20240222233037 32 178 3.0 9.0 0.00 0.00 0.00 77 1007.2
20240222232535 32 201 2.0 6.0 0.00 0.00 0.00 76 1007.2
20240222232034 32 141 1.0 5.0 0.00 0.00 0.00 76 1007.3
20240222231530 32 196 1.0 4.0 0.00 0.00 0.00 76 1007.4
20240222231034 32 135 1.0 4.0 0.00 0.00 0.00 76 1007.4
20240222230530 32 173 1.0 4.0 0.00 0.00 0.00 76 1007.4
20240222230038 32 170 0.0 5.0 0.00 0.00 0.00 75 1007.3
20240222225530 32 176 0.0 5.0 0.00 0.00 0.00 75 1007.5
20240222225029 32 171 1.0 3.0 0.00 0.00 0.00 75 1007.5
20240222224538 32 182 0.0 3.0 0.00 0.00 0.00 75 1007.3
20240222224030 32 182 0.0 5.0 0.00 0.00 0.00 75 1007.4
20240222223530 32 190 1.0 5.0 0.00 0.00 0.00 75 1007.4
20240222223036 33 0 0.0 3.0 0.00 0.00 0.00 75 1007.6
20240222222530 33 182 1.0 3.0 0.00 0.00 0.00 75 1007.6
20240222222030 33 143 0.0 3.0 0.00 0.00 0.00 74 1007.6
20240222221533 33 173 1.0 5.0 0.00 0.00 0.00 74 1007.9
20240222221030 33 162 1.0 5.0 0.00 0.00 0.00 74 1007.8
20240222220529 33 138 1.0 5.0 0.00 0.00 0.00 74 1008.0
20240222220043 33 150 1.0 4.0 0.00 0.00 0.00 74 1008.0
20240222215529 33 155 1.0 3.0 0.00 0.00 0.00 73 1007.9
20240222215030 33 0 0.0 4.0 0.00 0.00 0.00 74 1008.0
20240222214533 33 139 0.0 6.0 0.00 0.00 0.00 73 1008.0
20240222214030 33 163 2.0 6.0 0.00 0.00 0.00 73 1008.0
20240222213530 33 0 1.0 5.0 0.00 0.00 0.00 73 1007.9
20240222213038 33 158 1.0 4.0 0.00 0.00 0.00 73 1008.1
20240222212530 33 151 1.0 4.0 0.00 0.00 0.00 72 1008.3
20240222212033 33 0 0.0 2.0 0.00 0.00 0.00 72 1008.4
20240222211545 34 154 0.0 3.0 0.00 0.00 0.00 72 1008.5
20240222211029 34 163 1.0 3.0 0.00 0.00 0.00 72 1008.5
20240222210530 34 146 1.0 4.0 0.00 0.00 0.00 72 1008.4
20240222210038 34 165 1.0 5.0 0.00 0.00 0.00 72 1008.7
20240222205530 34 186 1.0 6.0 0.00 0.00 0.00 72 1008.8
20240222205032 34 160 2.0 6.0 0.00 0.00 0.00 71 1008.9
20240222204536 34 231 2.0 6.0 0.00 0.00 0.00 72 1008.9
20240222204030 34 124 1.0 6.0 0.00 0.00 0.00 72 1008.9
20240222203535 34 191 2.0 7.0 0.00 0.00 0.00 72 1009.1
20240222203033 34 181 3.0 8.0 0.00 0.00 0.00 72 1009.2
20240222202529 34 150 3.0 8.0 0.00 0.00 0.00 72 1009.2
20240222202029 34 179 2.0 7.0 0.00 0.00 0.00 71 1009.3
20240222201535 34 194 3.0 7.0 0.00 0.00 0.00 71 1009.2
20240222201031 34 0 2.0 6.0 0.00 0.00 0.00 71 1009.3
20240222200534 34 165 1.0 6.0 0.00 0.00 0.00 71 1009.2
20240222200140 34 118 3.0 6.0 0.00 0.00 0.00 71 1009.5
20240222195530 34 167 2.0 7.0 0.00 0.00 0.00 71 1009.7
20240222195030 34 201 2.0 7.0 0.00 0.00 0.00 71 1009.5
20240222194537 34 166 2.0 7.0 0.00 0.00 0.00 71 1009.5
20240222194031 33 170 1.0 5.0 0.00 0.00 0.00 71 1009.5
20240222193530 33 175 2.0 5.0 0.00 0.00 0.00 71 1009.5
20240222193049 33 161 1.0 6.0 0.00 0.00 0.00 71 1009.7
20240222192531 33 142 3.0 6.0 0.00 0.00 0.00 71 1009.6
20240222192029 33 142 3.0 6.0 0.00 0.00 0.00 71 1009.7
20240222191540 33 146 2.0 5.0 0.00 0.00 0.00 71 1009.9
20240222191029 33 149 2.0 7.0 0.00 0.00 0.00 71 1010.1
20240222190530 33 157 1.0 7.0 0.00 0.00 0.00 72 1010.1
20240222190035 33 0 3.0 7.0 0.00 0.00 0.00 72 1010.2
20240222185527 33 237 3.0 7.0 0.00 0.00 0.00 71 1010.3
20240222185032 33 149 2.0 7.0 0.00 0.00 0.00 72 1010.4
20240222184537 33 241 2.0 6.0 0.00 0.00 0.00 71 1010.4
20240222184028 33 150 2.0 6.0 0.00 0.00 0.00 71 1010.4
20240222183530 33 171 3.0 10.0 0.00 0.00 0.00 72 1010.4
20240222183033 33 167 5.0 10.0 0.00 0.00 0.00 71 1010.7
20240222182530 33 205 3.0 7.0 0.00 0.00 0.00 72 1010.8
20240222182029 33 184 4.0 9.0 0.00 0.00 0.00 72 1010.8
20240222181534 33 181 3.0 10.0 0.00 0.00 0.00 73 1011.0
20240222181028 32 138 5.0 10.0 0.00 0.00 0.00 73 1011.0
20240222180527 32 180 3.0 8.0 0.00 0.00 0.00 73 1011.2
20240222180036 32 106 3.0 8.0 0.00 0.00 0.00 74 1011.3
20240222175530 32 173 1.0 7.0 0.00 0.00 0.00 75 1011.3
20240222175030 31 180 2.0 7.0 0.00 0.00 0.00 76 1011.3
20240222174532 31 0 3.0 8.0 0.00 0.00 0.00 76 1011.4
20240222174030 31 188 3.0 8.0 0.00 0.00 0.00 76 1011.5
20240222173530 31 144 2.0 9.0 0.00 0.00 0.00 76 1011.7
20240222173036 30 180 3.0 9.0 0.00 0.00 0.00 76 1011.8
20240222172529 30 172 3.0 9.0 0.00 0.00 0.00 76 1012.0
20240222172027 30 166 3.0 7.0 0.00 0.00 0.00 77 1011.9
20240222171533 30 182 2.0 7.0 0.00 0.00 0.00 77 1012.0
20240222171029 30 157 4.0 7.0 0.00 0.00 0.00 77 1012.1
20240222170527 30 161 1.0 9.0 0.00 0.00 0.00 78 1012.3
20240222170042 29 215 1.0 9.0 0.00 0.00 0.00 79 1012.4
20240222165532 29 165 2.0 9.0 0.00 0.00 0.00 79 1012.5
20240222165030 29 173 3.0 8.0 0.00 0.00 0.00 79 1012.8
20240222164551 29 160 3.0 8.0 0.00 0.00 0.00 78 1012.9
20240222164029 29 165 4.0 8.0 0.00 0.00 0.00 78 1013.0
20240222163527 29 0 2.0 8.0 0.00 0.00 0.00 79 1013.1
20240222163040 29 167 3.0 8.0 0.00 0.00 0.00 78 1013.4
20240222162528 29 187 3.0 7.0 0.00 0.00 0.00 79 1013.6
20240222162030 29 80 2.0 7.0 0.00 0.00 0.00 79 1013.6
20240222161556 28 127 3.0 8.0 0.00 0.00 0.00 80 1013.9
20240222161030 28 202 4.0 9.0 0.00 0.00 0.00 80 1014.1
20240222160533 28 154 4.0 10.0 0.00 0.00 0.00 81 1014.2
20240222160043 28 147 4.0 10.0 0.00 0.00 0.00 80 1014.2
20240222155529 28 189 4.0 7.0 0.00 0.00 0.00 80 1014.3
20240222155030 28 155 2.0 8.0 0.00 0.00 0.00 81 1014.3
20240222154543 27 166 2.0 8.0 0.00 0.00 0.00 81 1014.5
20240222154030 27 186 4.0 8.0 0.00 0.00 0.00 82 1014.5
20240222153530 27 180 2.0 8.0 0.00 0.00 0.00 82 1014.5
20240222153033 27 191 2.0 8.0 0.00 0.00 0.00 82 1014.6
20240222152531 27 180 3.0 8.0 0.00 0.00 0.00 82 1014.7
20240222152028 26 161 2.0 7.0 0.00 0.00 0.00 83 1014.6
20240222151541 26 194 4.0 7.0 0.00 0.00 0.00 83 1014.7
20240222151027 26 180 2.0 7.0 0.00 0.00 0.00 82 1014.8
20240222150528 26 160 3.0 8.0 0.00 0.00 0.00 82 1014.9
20240222150041 26 175 5.0 8.0 0.00 0.00 0.00 82 1014.9
20240222145530 26 166 2.0 8.0 0.00 0.00 0.00 81 1014.8
20240222145028 26 193 2.0 8.0 0.00 0.00 0.00 82 1014.9
20240222144538 27 170 2.0 7.0 0.00 0.00 0.00 82 1015.1
20240222144031 27 180 2.0 7.0 0.00 0.00 0.00 82 1015.1
20240222143530 27 173 1.0 7.0 0.00 0.00 0.00 83 1015.2
20240222143032 26 154 3.0 7.0 0.00 0.00 0.00 83 1015.3
20240222142529 26 132 2.0 7.0 0.00 0.00 0.00 83 1015.4
20240222142033 26 157 3.0 7.0 0.00 0.00 0.00 83 1015.2
20240222141537 26 166 4.0 7.0 0.00 0.00 0.00 83 1015.4
20240222141027 26 184 2.0 6.0 0.00 0.00 0.00 84 1015.6
20240222140529 25 111 0.0 6.0 0.00 0.00 0.00 85 1015.7
20240222140043 25 145 1.0 6.0 0.00 0.00 0.00 86 1015.7
20240222135528 25 169 2.0 5.0 0.00 0.00 0.00 86 1015.8
20240222135029 24 0 0.0 5.0 0.00 0.00 0.00 88 1016.0
20240222134537 24 161 1.0 5.0 0.00 0.00 0.00 88 1016.1
20240222134028 23 182 1.0 5.0 0.00 0.00 0.00 88 1016.1
20240222133528 24 0 1.0 5.0 0.00 0.00 0.00 88 1016.3
20240222133049 24 188 1.0 4.0 0.00 0.00 0.00 89 1016.4
20240222132531 23 0 0.0 2.0 0.00 0.00 0.00 91 1016.5
20240222132028 23 0 0.0 4.0 0.00 0.00 0.00 91 1016.7
20240222131553 22 0 0.0 4.0 0.00 0.00 0.00 92 1016.7
20240222131033 22 0 0.0 2.0 0.00 0.00 0.00 92 1016.8
20240222130530 21 0 0.0 2.0 0.00 0.00 0.00 93 1017.0
20240222130053 21 0 0.0 1.0 0.00 0.00 0.00 93 1017.1
20240222125527 21 0 0.0 2.0 0.00 0.00 0.00 92 1017.2
20240222125030 20 0 0.0 2.0 0.00 0.00 0.00 93 1016.9
20240222124532 20 0 0.0 2.0 0.00 0.00 0.00 92 1017.1
20240222124029 20 0 0.0 2.0 0.00 0.00 0.00 92 1016.8
20240222123529 19 83 0.0 1.0 0.00 0.00 0.00 92 1017.2
20240222123033 19 0 0.0 3.0 0.00 0.00 0.00 92 1017.3
20240222122529 19 83 0.0 3.0 0.00 0.00 0.00 92 1017.1
20240222122029 19 0 1.0 3.0 0.00 0.00 0.00 92 1016.8
20240222121531 19 0 1.0 2.0 0.00 0.00 0.00 92 1017.0
20240222121028 19 0 1.0 2.0 0.00 0.00 0.00 92 1017.2
20240222120533 19 111 0.0 3.0 0.00 0.00 0.00 93 1017.1
20240222120029 19 111 0.0 3.0 0.00 0.00 0.00 92 1017.1
20240222115532 19 153 0.0 3.0 0.00 0.00 0.00 92 1017.1
20240222115030 19 90 1.0 3.0 0.00 0.00 0.00 91 1017.1
20240222114535 19 80 1.0 3.0 0.00 0.00 0.00 91 1017.4
20240222114030 19 101 1.0 5.0 0.00 0.00 0.00 93 1017.6
20240222113528 19 157 2.0 5.0 0.00 0.00 0.00 93 1017.5
20240222113033 19 132 1.0 4.0 0.00 0.00 0.00 93 1017.8
20240222112528 19 144 0.0 3.0 0.00 0.00 0.00 93 1017.8
20240222112030 18 113 0.0 3.0 0.00 0.00 0.00 91 1017.8
20240222111542 18 103 1.0 3.0 0.00 0.00 0.00 91 1017.9
20240222111029 19 88 1.0 3.0 0.00 0.00 0.00 91 1018.1
20240222110529 19 0 0.0 2.0 0.00 0.00 0.00 91 1018.4
20240222110029 19 173 0.0 2.0 0.00 0.00 0.00 91 1018.1
20240222105529 19 0 0.0 3.0 0.00 0.00 0.00 92 1018.4
20240222105028 19 0 0.0 5.0 0.00 0.00 0.00 92 1018.2
20240222104532 19 200 0.0 5.0 0.00 0.00 0.00 93 1018.0
20240222104032 19 0 1.0 5.0 0.00 0.00 0.00 93 1018.0
20240222103534 19 158 1.0 5.0 0.00 0.00 0.00 93 1018.0
20240222103031 19 146 0.0 3.0 0.00 0.00 0.00 93 1018.2
20240222102527 18 110 0.0 3.0 0.00 0.00 0.00 92 1018.0
20240222102029 18 0 1.0 3.0 0.00 0.00 0.00 92 1018.0
20240222101533 18 116 1.0 3.0 0.00 0.00 0.00 92 1018.1
20240222101028 18 79 1.0 3.0 0.00 0.00 0.00 92 1018.5
20240222100527 18 74 1.0 3.0 0.00 0.00 0.00 92 1018.4
20240222100039 18 80 2.0 3.0 0.00 0.00 0.00 92 1018.5
20240222095530 18 83 1.0 3.0 0.00 0.00 0.00 91 1018.6
20240222095028 18 0 1.0 3.0 0.00 0.00 0.00 90 1018.7
20240222094531 19 71 0.0 2.0 0.00 0.00 0.00 92 1018.7
20240222094030 19 139 0.0 2.0 0.00 0.00 0.00 92 1018.8
20240222093529 19 90 1.0 2.0 0.00 0.00 0.00 92 1018.8
20240222093029 19 0 0.0 2.0 0.00 0.00 0.00 93 1018.8
20240222092529 18 111 1.0 2.0 0.00 0.00 0.00 92 1018.9
20240222092029 18 135 1.0 2.0 0.00 0.00 0.00 92 1019.2
20240222091534 18 69 0.0 2.0 0.00 0.00 0.00 92 1019.3
20240222091028 18 0 0.0 3.0 0.00 0.00 0.00 91 1019.2
20240222090531 18 67 0.0 3.0 0.00 0.00 0.00 91 1019.2
20240222090036 18 66 1.0 3.0 0.00 0.00 0.00 91 1019.2
20240222085530 18 74 0.0 3.0 0.00 0.00 0.00 91 1019.4
20240222085028 19 78 1.0 3.0 0.00 0.00 0.00 91 1019.4
20240222084537 19 70 1.0 2.0 0.00 0.00 0.00 91 1019.4
20240222084028 19 0 1.0 2.0 0.00 0.00 0.00 92 1019.5
20240222083530 19 63 0.0 2.0 0.00 0.00 0.00 92 1019.7
20240222083039 18 64 0.0 3.0 0.00 0.00 0.00 91 1019.6
20240222082529 19 59 1.0 3.0 0.00 0.00 0.00 91 1019.6
20240222082029 19 59 0.0 2.0 0.00 0.00 0.00 91 1019.8
20240222081531 19 53 1.0 2.0 0.00 0.00 0.00 90 1020.0
20240222081028 19 53 0.0 3.0 0.00 0.00 0.00 89 1020.0
20240222080529 19 55 1.0 3.0 0.00 0.00 0.00 90 1019.9
20240222080039 20 50 0.0 3.0 0.00 0.00 0.00 91 1020.0
20240222075534 20 89 0.0 2.0 0.00 0.00 0.00 90 1020.1
20240222075027 20 0 0.0 2.0 0.00 0.00 0.00 90 1020.2
20240222074537 20 0 0.0 2.0 0.00 0.00 0.00 90 1020.1
20240222074028 20 98 0.0 2.0 0.00 0.00 0.00 90 1020.3
20240222073529 20 98 1.0 3.0 0.00 0.00 0.00 89 1020.4
20240222073038 20 0 1.0 3.0 0.00 0.00 0.00 89 1020.6
20240222072532 20 87 1.0 3.0 0.00 0.00 0.00 88 1020.9
20240222072027 20 161 1.0 3.0 0.00 0.00 0.00 88 1020.9
20240222071529 21 159 0.0 2.0 0.00 0.00 0.00 88 1021.0
20240222071030 21 0 0.0 2.0 0.00 0.00 0.00 90 1021.1
20240222070527 21 181 1.0 2.0 0.00 0.00 0.00 90 1021.4
20240222070043 20 200 0.0 1.0 0.00 0.00 0.00 89 1021.5
20240222065528 21 0 0.0 1.0 0.00 0.00 0.00 89 1021.5
20240222065028 21 0 0.0 2.0 0.00 0.00 0.00 89 1021.5
20240222064529 21 0 0.0 2.0 0.00 0.00 0.00 88 1021.5
20240222064030 21 200 0.0 4.0 0.00 0.00 0.00 87 1021.5
20240222063527 21 0 0.0 4.0 0.00 0.00 0.00 87 1021.6
20240222063030 21 201 1.0 4.0 0.00 0.00 0.00 88 1021.7
20240222062530 21 180 1.0 4.0 0.00 0.00 0.00 87 1021.6
20240222062028 22 0 0.0 4.0 0.00 0.00 0.00 86 1021.6
20240222061531 22 166 1.0 4.0 0.00 0.00 0.00 88 1021.6